AUR56H EGJB-EGHI

Flight info

Callsign AUR56H
Flight time 0h 31m
Altitude 9000
Route ORTAC Q41 THRED
Aircraft AT76/M-SBDFGIRY/E

Departure

Time 2026-05-08 11:29
Airport Guernsey Airport (EGJB)

Arrival

Time 2026-05-08 12:00
Airport Southampton Airport (EGHI)
Time Latitude Longitude Altitude Speed Heading
2026-05-08 11:11 49.43254 -2.59620 325 ft 0 kts 178°
2026-05-08 11:22 49.43264 -2.59621 325 ft 4 kts 178°
2026-05-08 11:22 49.43285 -2.59621 324 ft 4 kts 178°
2026-05-08 11:22 49.43312 -2.59623 322 ft 4 kts 178°
2026-05-08 11:22 49.43333 -2.59624 326 ft 4 kts 181°
2026-05-08 11:23 49.43355 -2.59614 325 ft 4 kts 234°
2026-05-08 11:23 49.43363 -2.59580 327 ft 2 kts 267°
2026-05-08 11:23 49.43363 -2.59579 327 ft 0 kts 268°
2026-05-08 11:24 49.43363 -2.59580 327 ft 1 kts 268°
2026-05-08 11:25 49.43362 -2.59637 323 ft 9 kts 268°
2026-05-08 11:25 49.43353 -2.59754 323 ft 11 kts 254°
2026-05-08 11:25 49.43344 -2.59891 317 ft 16 kts 267°
2026-05-08 11:25 49.43338 -2.60093 304 ft 22 kts 268°
2026-05-08 11:26 49.43332 -2.60336 290 ft 23 kts 267°
2026-05-08 11:26 49.43326 -2.60563 290 ft 21 kts 270°
2026-05-08 11:26 49.43351 -2.60808 300 ft 20 kts 281°
2026-05-08 11:26 49.43365 -2.60993 309 ft 19 kts 268°
2026-05-08 11:27 49.43360 -2.61160 309 ft 14 kts 267°
2026-05-08 11:27 49.43379 -2.61286 311 ft 10 kts 312°
2026-05-08 11:27 49.43435 -2.61355 312 ft 14 kts 339°
2026-05-08 11:27 49.43465 -2.61328 312 ft 5 kts 80°
2026-05-08 11:28 49.43465 -2.61320 312 ft 0 kts 87°
2026-05-08 11:28 49.43475 -2.61003 308 ft 66 kts 88°
2026-05-08 11:28 49.43508 -2.59957 353 ft 122 kts 86°
2026-05-08 11:28 49.43581 -2.58612 849 ft 128 kts 83°
2026-05-08 11:29 49.43694 -2.57159 1338 ft 141 kts 85°
2026-05-08 11:29 49.43743 -2.55537 1678 ft 165 kts 87°
2026-05-08 11:29 49.43906 -2.53758 2125 ft 172 kts 63°
2026-05-08 11:29 49.44825 -2.52675 2582 ft 174 kts 14°
2026-05-08 11:30 49.46044 -2.52457 2928 ft 180 kts
2026-05-08 11:30 49.47305 -2.52284 3351 ft 183 kts
2026-05-08 11:30 49.48581 -2.52145 3811 ft 184 kts
2026-05-08 11:30 49.49866 -2.52023 4257 ft 185 kts
2026-05-08 11:31 49.51158 -2.51905 4709 ft 187 kts
2026-05-08 11:31 49.52452 -2.51737 5124 ft 187 kts 11°
2026-05-08 11:31 49.53733 -2.51290 5535 ft 190 kts 15°
2026-05-08 11:31 49.55012 -2.50753 5945 ft 191 kts 17°
2026-05-08 11:32 49.56285 -2.50150 6369 ft 192 kts 22°
2026-05-08 11:32 49.57523 -2.49363 6794 ft 193 kts 25°
2026-05-08 11:32 49.58352 -2.48798 7072 ft 193 kts 26°
2026-05-08 11:32 49.59552 -2.47897 7461 ft 194 kts 28°
2026-05-08 11:33 49.60748 -2.46920 7855 ft 196 kts 30°
2026-05-08 11:33 49.61972 -2.45894 8212 ft 199 kts 29°
2026-05-08 11:33 49.63195 -2.44871 8572 ft 201 kts 29°
2026-05-08 11:33 49.64431 -2.43842 8878 ft 206 kts 29°
2026-05-08 11:34 49.65735 -2.42756 8974 ft 220 kts 29°
2026-05-08 11:34 49.67122 -2.41585 9011 ft 234 kts 30°
2026-05-08 11:34 49.68582 -2.40338 9026 ft 245 kts 30°
2026-05-08 11:34 49.70104 -2.39046 9034 ft 253 kts 29°
2026-05-08 11:35 49.71576 -2.37521 9038 ft 258 kts 40°
2026-05-08 11:35 49.72948 -2.35681 9041 ft 264 kts 43°
2026-05-08 11:35 49.74319 -2.33763 9042 ft 267 kts 43°
2026-05-08 11:35 49.75724 -2.31857 9042 ft 270 kts 41°
2026-05-08 11:36 49.77164 -2.29991 9043 ft 271 kts 40°
2026-05-08 11:36 49.78619 -2.28122 9043 ft 272 kts 41°
2026-05-08 11:36 49.80076 -2.26238 9043 ft 273 kts 41°
2026-05-08 11:36 49.81536 -2.24351 9043 ft 274 kts 41°
2026-05-08 11:37 49.83000 -2.22459 9043 ft 274 kts 41°
2026-05-08 11:37 49.84466 -2.20556 9044 ft 275 kts 41°
2026-05-08 11:37 49.85929 -2.18660 9044 ft 275 kts 41°
2026-05-08 11:37 49.87396 -2.16757 9044 ft 275 kts 41°
2026-05-08 11:38 49.88862 -2.14851 9044 ft 275 kts 41°
2026-05-08 11:38 49.90328 -2.12946 9044 ft 275 kts 41°
2026-05-08 11:38 49.91793 -2.11038 9045 ft 275 kts 41°
2026-05-08 11:38 49.93259 -2.09132 9044 ft 275 kts 41°
2026-05-08 11:39 49.94723 -2.07222 9044 ft 275 kts 41°
2026-05-08 11:39 49.96188 -2.05314 9045 ft 275 kts 41°
2026-05-08 11:39 49.97650 -2.03402 9045 ft 275 kts 41°
2026-05-08 11:39 49.99112 -2.01486 9045 ft 275 kts 41°
2026-05-08 11:40 50.00636 -1.99716 9041 ft 273 kts 28°
2026-05-08 11:40 50.02383 -1.98575 9046 ft 272 kts 21°
2026-05-08 11:40 50.04162 -1.97549 9045 ft 273 kts 21°
2026-05-08 11:40 50.05933 -1.96484 9045 ft 274 kts 22°
2026-05-08 11:41 50.07688 -1.95321 9046 ft 275 kts 24°
2026-05-08 11:41 50.09438 -1.94114 9046 ft 275 kts 24°
2026-05-08 11:41 50.11194 -1.92918 9045 ft 276 kts 24°
2026-05-08 11:41 50.12957 -1.91721 9044 ft 276 kts 24°
2026-05-08 11:42 50.14714 -1.90529 9045 ft 276 kts 24°
2026-05-08 11:42 50.16475 -1.89330 9046 ft 276 kts 24°
2026-05-08 11:42 50.18237 -1.88129 9045 ft 276 kts 24°
2026-05-08 11:42 50.20002 -1.86929 9045 ft 276 kts 24°
2026-05-08 11:43 50.21763 -1.85729 9045 ft 276 kts 24°
2026-05-08 11:43 50.23524 -1.84527 9044 ft 276 kts 24°
2026-05-08 11:43 50.25284 -1.83324 9044 ft 276 kts 24°
2026-05-08 11:43 50.27042 -1.82125 9048 ft 276 kts 24°
2026-05-08 11:44 50.28805 -1.80919 9054 ft 276 kts 24°
2026-05-08 11:44 50.30561 -1.79719 9052 ft 276 kts 24°
2026-05-08 11:44 50.32320 -1.78511 9055 ft 276 kts 24°
2026-05-08 11:44 50.34080 -1.77308 9054 ft 276 kts 24°
2026-05-08 11:45 50.35839 -1.76098 9055 ft 276 kts 24°
2026-05-08 11:45 50.37600 -1.74890 9053 ft 276 kts 24°
2026-05-08 11:45 50.39360 -1.73680 9056 ft 276 kts 24°
2026-05-08 11:45 50.41119 -1.72468 9056 ft 276 kts 24°
2026-05-08 11:46 50.42877 -1.71260 9054 ft 275 kts 24°
2026-05-08 11:46 50.44629 -1.70051 9055 ft 275 kts 24°
2026-05-08 11:46 50.46379 -1.68849 9054 ft 274 kts 24°
2026-05-08 11:46 50.48125 -1.67649 9054 ft 274 kts 24°
2026-05-08 11:47 50.49867 -1.66439 9055 ft 274 kts 25°
2026-05-08 11:47 50.51608 -1.65228 9053 ft 274 kts 24°
2026-05-08 11:47 50.53355 -1.64026 9057 ft 275 kts 24°
2026-05-08 11:47 50.55104 -1.62812 9054 ft 275 kts 24°
2026-05-08 11:48 50.56857 -1.61601 9053 ft 275 kts 24°
2026-05-08 11:48 50.58610 -1.60385 9055 ft 276 kts 24°
2026-05-08 11:48 50.60362 -1.59170 9053 ft 275 kts 24°
2026-05-08 11:48 50.62111 -1.57956 9056 ft 274 kts 25°
2026-05-08 11:49 50.63853 -1.56742 9058 ft 275 kts 24°
2026-05-08 11:49 50.65606 -1.55528 9057 ft 275 kts 24°
2026-05-08 11:49 50.67364 -1.54317 9058 ft 275 kts 24°
2026-05-08 11:49 50.69111 -1.53084 9053 ft 276 kts 25°
2026-05-08 11:50 50.70865 -1.51856 9050 ft 276 kts 24°
2026-05-08 11:50 50.72622 -1.50635 9052 ft 276 kts 25°
2026-05-08 11:50 50.74401 -1.49389 9055 ft 276 kts 24°
2026-05-08 11:50 50.76153 -1.48167 9060 ft 276 kts 24°
2026-05-08 11:51 50.77902 -1.46938 9063 ft 269 kts 25°
2026-05-08 11:51 50.79568 -1.45750 8858 ft 266 kts 25°
2026-05-08 11:51 50.81255 -1.44540 8518 ft 267 kts 25°
2026-05-08 11:51 50.82949 -1.43341 8198 ft 267 kts 25°
2026-05-08 11:52 50.84644 -1.42156 7900 ft 266 kts 25°
2026-05-08 11:52 50.86336 -1.40975 7601 ft 265 kts 24°
2026-05-08 11:52 50.88016 -1.39800 7321 ft 263 kts 25°
2026-05-08 11:52 50.89680 -1.38629 7058 ft 259 kts 25°
2026-05-08 11:53 50.91309 -1.37480 6808 ft 254 kts 25°
2026-05-08 11:53 50.92908 -1.36356 6572 ft 249 kts 25°
2026-05-08 11:53 50.94475 -1.35252 6427 ft 242 kts 25°
2026-05-08 11:53 50.96022 -1.34153 6041 ft 245 kts 26°
2026-05-08 11:54 50.97530 -1.32890 5768 ft 245 kts 31°
2026-05-08 11:54 50.98996 -1.31534 5389 ft 242 kts 32°
2026-05-08 11:54 51.00397 -1.30225 4867 ft 225 kts 32°
2026-05-08 11:54 51.01720 -1.29013 4297 ft 217 kts 31°
2026-05-08 11:55 51.03028 -1.27844 3639 ft 215 kts 31°
2026-05-08 11:55 51.04310 -1.26714 3155 ft 206 kts 31°
2026-05-08 11:55 51.05536 -1.25634 2721 ft 197 kts 31°
2026-05-08 11:55 51.06778 -1.24629 2367 ft 201 kts 20°
2026-05-08 11:56 51.08156 -1.24766 2167 ft 203 kts 336°
2026-05-08 11:56 51.09136 -1.26307 2012 ft 201 kts 294°
2026-05-08 11:56 51.09246 -1.28445 1895 ft 194 kts 251°
2026-05-08 11:56 51.08464 -1.30067 1847 ft 184 kts 207°
2026-05-08 11:57 51.07281 -1.30572 1826 ft 173 kts 187°
2026-05-08 11:57 51.06094 -1.30876 1809 ft 171 kts 186°
2026-05-08 11:57 51.04949 -1.31179 1790 ft 163 kts 186°
2026-05-08 11:57 51.03876 -1.31480 1736 ft 152 kts 187°
2026-05-08 11:58 51.02858 -1.31792 1558 ft 145 kts 188°
2026-05-08 11:58 51.01907 -1.32115 1380 ft 131 kts 189°
2026-05-08 11:58 51.01076 -1.32426 1207 ft 116 kts 189°
2026-05-08 11:59 50.99515 -1.33129 894 ft 120 kts 196°
2026-05-08 11:59 50.98732 -1.33601 728 ft 121 kts 198°
2026-05-08 11:59 50.97950 -1.34066 564 ft 118 kts 197°
2026-05-08 11:59 50.97189 -1.34498 376 ft 115 kts 195°
2026-05-08 12:00 50.96435 -1.34897 218 ft 115 kts 196°
2026-05-08 12:00 50.95675 -1.35318 59 ft 113 kts 197°
2026-05-08 12:00 50.95042 -1.35669 36 ft 58 kts 200°
2026-05-08 12:00 50.94773 -1.35822 36 ft 30 kts 199°
2026-05-08 12:01 50.94611 -1.35911 35 ft 21 kts 200°
2026-05-08 12:01 50.94568 -1.35999 35 ft 10 kts 286°
2026-05-08 12:01 50.94592 -1.36094 35 ft 10 kts 303°
2026-05-08 12:01 50.94654 -1.36140 35 ft 10 kts
2026-05-08 12:02 50.94723 -1.36105 36 ft 11 kts 19°
2026-05-08 12:02 50.94797 -1.36065 36 ft 11 kts 19°
2026-05-08 12:02 50.94871 -1.36030 36 ft 10 kts 355°
2026-05-08 12:02 50.94907 -1.36105 36 ft 9 kts 290°
2026-05-08 12:03 50.94929 -1.36201 36 ft 9 kts 290°
2026-05-08 12:03 50.94954 -1.36259 36 ft 4 kts 353°
2026-05-08 12:03 50.94983 -1.36247 36 ft 4 kts 19°
2026-05-08 12:03 50.95001 -1.36237 36 ft 0 kts 20°
2026-05-08 12:08 50.94994 -1.36205 36 ft 0 kts 19°
2026-05-08 12:11 50.95000 -1.36238 36 ft 0 kts 19°